OH1KK Weather Reports


Display with metric or nautical units.
time (UTC)temp
F
wind
direction
speed
MPH
gust
MPH
rain 1hr
in
rain 24hr
in
rain mn
in
humidity
%
barometer
mb
20260506050428 38 222 3.0 4.0 0.00 0.00 0.00 68 998.0
20260506044906 38 251 8.0 10.0 0.00 0.00 0.00 68 998.1
20260506043452 37 271 5.0 8.0 0.00 0.00 0.00 70 998.1
20260506040421 36 279 3.0 4.0 0.00 0.00 0.00 72 997.7
20260506034907 35 291 4.0 6.0 0.00 0.00 0.00 74 997.6
20260506033453 34 258 5.0 6.0 0.00 0.00 0.00 75 997.3
20260506030422 33 231 3.0 4.0 0.00 0.00 0.00 78 997.1
20260506024909 32 207 1.0 3.0 0.00 0.00 0.00 79 997.2
20260506021939 31 252 1.0 2.0 0.00 0.00 0.00 80 997.0
20260506020424 32 233 0.0 1.0 0.00 0.00 0.00 79 996.8
20260506014909 32 259 0.0 0.0 0.00 0.00 0.00 79 996.8
20260506013455 32 278 0.0 1.0 0.00 0.00 0.00 78 996.6
20260506011940 32 253 1.0 2.0 0.00 0.00 0.00 78 996.4
20260506010424 32 255 2.0 3.0 0.00 0.00 0.00 77 996.3
20260506004910 32 242 0.0 0.0 0.00 0.00 0.00 77 996.0
20260506003456 32 200 2.0 2.0 0.00 0.00 0.00 76 996.2
20260506001941 32 259 1.0 1.0 0.00 0.00 0.00 77 995.9
20260506000425 33 186 0.0 1.0 0.00 0.00 0.00 76 995.7
20260505231941 34 226 2.0 2.0 0.00 0.00 0.00 74 995.8
20260505230426 34 154 0.0 1.0 0.00 0.00 0.00 74 995.6
20260505224910 34 231 0.0 1.0 0.00 0.00 0.00 73 995.5
20260505223456 35 257 1.0 1.0 0.00 0.00 0.00 72 995.7
20260505220426 36 190 1.0 1.0 0.00 0.00 0.00 68 995.6
20260505214910 36 219 2.0 3.0 0.00 0.00 0.00 67 995.4
20260505213456 36 267 1.0 2.0 0.00 0.00 0.00 67 995.4
20260505211941 36 199 1.0 2.0 0.00 0.00 0.00 66 995.3
20260505204910 37 230 1.0 2.0 0.00 0.00 0.00 64 995.2
20260505203456 37 250 1.0 1.0 0.00 0.00 0.00 63 995.1
20260505201941 38 255 2.0 2.0 0.00 0.00 0.00 62 995.0
20260505200425 39 190 1.0 3.0 0.00 0.00 0.00 60 995.0
20260505190426 42 270 6.0 8.0 0.00 0.00 0.00 52 994.5
20260505184917 42 233 1.0 2.0 0.00 0.00 0.00 52 994.8
20260505183457 43 230 7.0 10.0 0.00 0.00 0.00 49 994.5
20260505181942 43 234 2.0 3.0 0.00 0.00 0.00 48 994.4
20260505180426 44 246 6.0 8.0 0.00 0.00 0.00 46 994.5
20260505174912 45 271 3.0 4.0 0.00 0.00 0.00 44 994.2
20260505173458 46 272 8.0 10.0 0.00 0.00 0.00 42 993.9
20260505170428 47 281 5.0 6.0 0.00 0.00 0.00 38 993.7
20260505164912 47 290 4.0 5.0 0.00 0.00 0.00 38 993.7
20260505160429 48 291 5.0 9.0 0.00 0.00 0.00 35 993.6
20260505151944 49 286 4.0 5.0 0.00 0.00 0.00 35 993.3
20260505150428 48 287 5.0 5.0 0.00 0.00 0.00 34 993.1
20260505140429 48 289 10.0 18.0 0.00 0.00 0.00 35 993.0
20260505123401 46 323 10.0 13.0 0.00 0.00 0.00 39 992.6
20260505121947 45 301 11.0 14.0 0.00 0.00 0.00 40 992.5
20260505120431 46 282 6.0 9.0 0.00 0.00 0.00 43 992.1
20260505114917 46 294 8.0 9.0 0.00 0.00 0.00 44 992.1
20260505113402 46 294 9.0 11.0 0.00 0.00 0.00 44 991.9
20260505111948 46 284 10.0 13.0 0.00 0.00 0.00 44 991.8
20260505101948 43 309 7.0 9.0 0.00 0.00 0.00 52 991.3
20260505100433 43 266 10.0 11.0 0.00 0.00 0.00 54 991.1
20260505094919 42 218 2.0 3.0 0.00 0.00 0.00 57 990.9
20260505091950 42 262 8.0 14.0 0.00 0.00 0.00 58 990.7
20260505084920 41 292 9.0 12.0 0.00 0.00 0.00 59 990.2
20260505083404 41 328 4.0 5.0 0.00 0.00 0.00 62 989.9
20260505081950 42 260 8.0 9.0 0.00 0.00 0.00 62 989.6
20260505080436 43 274 8.0 10.0 0.00 0.00 0.00 61 989.6
20260505073405 42 233 8.0 10.0 0.00 0.00 0.00 65 989.6
20260505071950 40 311 7.0 9.0 0.00 0.00 0.00 69 989.3
20260505070437 40 292 3.0 4.0 0.00 0.00 0.00 72 989.2
20260505064920 40 242 8.0 11.0 0.00 0.00 0.00 74 989.2
20260505063405 39 289 3.0 5.0 0.00 0.00 0.00 76 989.0
20260505061951 39 261 6.0 8.0 0.00 0.00 0.00 77 989.0
20260505060436 38 250 7.0 11.0 0.00 0.00 0.00 80 989.0